Regional Weather Roundup
Issued by NWS Boston, MA

Current Version | Previous Version | Text Only | Print | Product List | Glossary On
Versions: 1 2 3 4 5 6 7 8 9 10 11 12 13 14 15 16 17 18 19 20 21 22 23 24 25 26 27 28 29 30 31 32 33 34 35 36 37 38 39 40 41 42 43 44 45 46 47 48 49 50
000
ASUS41 KBOX 011410
RWRBOX

REGIONAL WEATHER ROUNDUP
NATIONAL WEATHER SERVICE TAUNTON MA
1000 AM EDT WED OCT 01 2014

NOTE:  "FAIR" INDICATES FEW OR NO CLOUDS BELOW 12,000 FEET WITH NO
SIGNIFICANT WEATHER AND/OR OBSTRUCTIONS TO VISIBILITY.  THE FOLLOWING
OBSERVATION LOCATIONS DO NOT REPORT PRESENT WEATHER...PROVINCETOWN...
SMITHFIELD...BLOCK ISLAND...KEENE...AND OXFORD.

MAZALL-011500-
EASTERN MASSACHUSETTS

CITY           SKY/WX    TMP DP  RH WIND       PRES   REMARKS
BOSTON         LGT RAIN  57  56  96 N16       30.07R FOG
BEVERLY        CLOUDY    57  55  93 NE8       30.08R FOG
LAWRENCE       CLOUDY    56  55  97 N13       30.10S FOG
BEDFORD        LGT RAIN  56  55  97 N12       30.07R FOG
BLUE HILL        N/A     56  56 100 N10G21    30.06R
NORWOOD        LGT RAIN  59  57  93 N5        30.06S FOG
MARSHFIELD     NOT AVBL
PLYMOUTH       RAIN      60  60 100 NE16G22   30.03S FOG
TAUNTON        LGT RAIN  59  57  93 N6        30.03S
NEW BEDFORD    LGT RAIN  60  58  92 N9        30.01R FOG
$$

MAZALL-011500-
CAPE COD AND THE ISLANDS

CITY           SKY/WX    TMP DP  RH WIND       PRES   REMARKS
FALMOUTH       CLOUDY    63  61  94 NE15G21   30.01R FOG
HYANNIS        HVY RAIN  63  61  93 NE12G21   29.99R FOG
CHATHAM        CLOUDY    61  60  97 NE13G18   30.01R FOG
PROVINCETOWN   CLOUDY    61  59  94 NE13G20   30.03S
NANTUCKET      CLOUDY    63  61  93 NE17      29.97R FOG
MARTHAS VNYRD  LGT RAIN  63  61  93 NE18      30.00R
$$

MAZALL-011500-
CENTRAL AND WESTERN MASSACHUSETTS

CITY           SKY/WX    TMP DP  RH WIND       PRES   REMARKS
WORCESTER      FOG       54  54 100 NE9       30.09R VSB 1/4
FITCHBURG      CLOUDY    58  54  86 N8        30.10R
ORANGE         LGT RAIN  57  55  93 NW6       30.10R
SPRINGFIELD    LGT RAIN  58  56  95 N7        30.08R FOG
WESTFIELD      LGT RAIN  59  56  89 N7        30.08R
NORTH ADAMS    LGT RAIN  58  56  93 SE3       30.10R
PITTSFIELD     LGT RAIN  56  55  97 N5        30.09R FOG
$$

RIZALL-011500-
RHODE ISLAND

CITY           SKY/WX    TMP DP  RH WIND       PRES   REMARKS
PROVIDENCE     DRIZZLE   59  57  93 N14       30.05R
NEWPORT        HVY RAIN  60  57  89 N9        30.02S FOG
BLOCK ISLAND   CLOUDY    61  55  82 NE13G20   30.01S
SMITHFIELD     CLOUDY    55  50  82 N14       30.05S
WESTERLY       LGT RAIN  59  57  93 N10G17    30.03S FOG
$$

CTZALL-011500-
CONNECTICUT

CITY           SKY/WX    TMP DP  RH WIND       PRES   REMARKS
BRADLEY INTL   LGT RAIN  60  56  86 N8        30.07R
HARTFORD       RAIN      58  56  93 N9        30.06S FOG
BRIDGEPORT     LGT RAIN  60  58  92 N12       30.04R
DANBURY        LGT RAIN  59  56  89 NE6       30.07R
GROTON         CLOUDY    59  57  93 N13       30.02S
NEW HAVEN      CLOUDY    62  57  83 N13       30.04R
CHESTER        NOT AVBL
MERIDEN        LGT RAIN  59  56  89 N10       30.06R
WILLIMANTIC    HVY RAIN  58  56  93 N8        30.06R FOG
OXFORD         LGT RAIN  57  52  82 NE128     30.07R FOG
$$

MEZ002-015-021-024-NHZ003-005-008-011-012-014-VTZ005-008-011500-
NORTHERN NEW ENGLAND

CITY           SKY/WX    TMP DP  RH WIND       PRES   REMARKS
PORTLAND ME    CLOUDY    56  53  90 NE9       30.13R
BANGOR ME      CLOUDY    55  49  80 N10       30.18R
CONCORD NH     LGT RAIN  57  54  89 N5        30.11R FOG
MANCHESTER NH  LGT RAIN  57  53  86 N9        30.09R
NASHUA NH      LGT RAIN  57  55  94 N5        30.11R FOG
PORTSMOUTH NH  CLOUDY    56  54  92 N10       30.10R
JAFFREY NH     LGT RAIN  55  54  96 N7        30.12R FOG
KEENE NH       CLOUDY   N/A N/A N/A N3        30.11R
BURLINGTON VT  CLOUDY    56  52  86 N5        30.15S FOG
MT. WASHINGTON CLOUDY    45  41  87 E13         N/A
$$

NYZ052-076-011500-
EASTERN NEW YORK

CITY           SKY/WX    TMP DP  RH WIND       PRES   REMARKS
ALBANY         LGT RAIN  62  57  83 N5        30.10R
NEW YORK CITY  CLOUDY    63  58  83 NE10G21   30.04R
$$

ANZALL-011500-
MARINE OBSERVATIONS

STATION/POSITION TIME  TEMP    WIND        PRES    VSBY  WAVE
                       AIR SEA DIR/SP/G                  HT/PER
                 (UTC) (F)     (DEG/KT/KT) (MB)    (MI)  (FT/S)
BOSTON BUOY      1350   57 60   30/ 21/ 25 1017.7R         5/ 6
BUZZARDS BAY     1300           10/ 18/ 20 1016.0R
NANTUCKET SOUND  1350   62 64   30/ 19/ 21 1014.9R         3/ 4
MASS BAY-STELLWA 1304   58 60   30/ 19/ 23   N/A    1 5/8  5/ 6
ISLE OF SHOALS   1300   56      30/ 23/ 25 1017.9R
S OF BLOCK IS    1308      67                N/A           4/ 4
$$

......................KEY.........................
  SKY/WX - SKY CONDITION/PRESENT WEATHER
  TMP    - TEMPERATURE IN FAHRENHEIT
  DWPT   - DEWPOINT IN FAHRENHEIT
  RH     - RELATIVE HUMIDITY IN PERCENT
  WIND   - DIRECTION AND SPEED IN MPH
  PRES   - MEAN SEA LEVEL PRESSURE IN INCHES OF HG
  WCI    - WIND CHILL INDEX
  VSB    - VISIBILITY IN MILES
  HX     - HEAT INDEX
  TC     - TEMPERATURE IN CELSIUS
  VRB    - VARIABLE WIND DIRECTION
  N/A    - NOT AVAILABLE



USA.gov is the U.S. government's official web portal to all federal, state and local government web resources and services.